Tracking 29528 objects as of 13-Sep-2024
HD Live streaming from Space Station
objects crossing your sky now

ANSER-FLW2

Track ANSER-FLW2 now!
10-day predictions
ANSER-FLW2 is classified as:


NORAD ID: 58018
Int'l Code: 2023-155C
Perigee: 544.9 km
Apogee: 548.7 km
Inclination: 97.6 °
Period: 95.4 minutes
Semi major axis: 6917 km
RCS: Unknown
Launch date: October 9, 2023
Source: Spain (SPN)
Launch site: FRENCH GUIANA (FRGUI)

Uplink (MHz):
Downlink (MHz): 401.850
Beacon (MHz):
Mode: FM
Call sign:
Status: Unknown

Your satellite tracking list
Your tracking list is empty




NASA's NSSDC Master Catalog

Two Line Element Set (TLE):
1 58018U 23155C   24257.44304315  .00083238  00000-0  52318-2 0  9997
2 58018  97.6222 326.0264 0002726 206.2742 153.8349 15.08860733 51061
Source of the keplerian elements: AFSPC